Location: Colorado Springs
(38.8340°N, 104.8210°W)
Time: 16:41:51
(UTC-07:00)

Vanguard 3 - Pass Details

Date: 31 October 2017
Orbit: 509 x 3263 km, 33.3° (Epoch: 22 November)

Event Time Altitude Azimuth Distance (km) Brightness Sun altitude
Rises 21:35:34 0° 180° (S) 6,342 11.6 -42.3°
Enters shadow 21:38:24 - 173° (S) 6,066 11.4 -42.8°
Reaches altitude 10° 21:42:30 10° 161° (SSE) 5,774 - -43.6°
Maximum altitude 21:51:30 16° 131° (SE) 5,630 - -45.2°
Drops below altitude 10° 22:00:59 10° 102° (ESE) 6,190 - -46.9°
Sets 22:08:44 0° 84° (E) 7,047 - -48.3°
